Regional Weather Roundup
Issued by NWS

Home | Current Version | Previous Version | Graphics & Text | Print | Product List | Glossary On
Versions: 1 2 3 4 5 6 7 8 9 10 11 12 13 14 15 16 17 18 19 20 21 22 23 24 25 26 27 28 29 30 31 32 33 34 35 36 37 38 39 40 41 42 43 44 45 46 47 48 49 50
000
ASUS45 KPSR 240910
RWRAZ

ARIZONA HOURLY REGIONAL WEATHER ROUNDUP
NATIONAL WEATHER SERVICE PHOENIX AZ
200 AM MST SUN MAY 24 2015

NOTE: FAIR INDICATES FEW OR NO CLOUDS BELOW 12,000 FEET WITH NO
SIGNIFICANT WEATHER AND/OR OBSTRUCTIONS TO VISIBILITY.

AZZ001>003-036-241000-
NORTHWEST ARIZONA

CITY           SKY/WX    TMP DP  RH WIND       PRES   REMARKS
BULLHEAD CITY  CLEAR     75  41  29 SE15      29.84S
KINGMAN        MOCLDY    57  37  47 S8        29.94F
$$

AZZ004>008-015-016-018-241000-
NORTH CENTRAL ARIZONA

CITY           SKY/WX    TMP DP  RH WIND       PRES   REMARKS
GRAND CANYON   CLOUDY    44  39  82 SW3       30.04F
WILLIAMS       CLEAR     45  34  65 S8        30.12F
PRESCOTT       CLEAR     49  34  56 S6        30.02F
FLAGSTAFF      CLEAR     38  32  79 W5        30.06F WCI  34
PAYSON         CLEAR     46  34  61 CALM      30.04F
PAGE           RAIN      51  50  96 SE5       29.97R FOG
$$

AZZ009>014-017-241000-
NORTHEAST ARIZONA

CITY           SKY/WX    TMP DP  RH WIND       PRES   REMARKS
WINSLOW        PTCLDY    46  33  60 SE5       29.99F
SAINT JOHNS    CLEAR     46  29  51 CALM      30.03S
WINDOW ROCK    MOCLDY    43  35  73 CALM      30.03F
SHOW LOW       CLEAR     41  28  60 S10       30.06F
$$

AZZ023-241000-
GREATER PHOENIX AREA

CITY           SKY/WX    TMP DP  RH WIND       PRES   REMARKS
PHOENIX        CLEAR     73  39  29 W7        29.88S
BUCKEYE        CLEAR     64  41  42 CALM      29.90S
LUKE AFB       CLEAR     69  42  38 S7        29.87F
DEER VALLEY    CLEAR     64  39  39 CALM      29.90S
SCOTTSDALE     CLEAR     69  41  36 CALM      29.91F
MESA-GATEWAY   CLEAR     61  43  51 SE7       29.92S
$$

AZZ027-028-241000-
SOUTHWEST MARICOPA COUNTY AND PINAL COUNTY

CITY           SKY/WX    TMP DP  RH WIND       PRES   REMARKS
CASA GRANDE    CLEAR     63  39  42 S7        29.90F
GILA BEND      FAIR      66  42  40 S6        29.88F
$$

AZZ503-504-507>509-241000-
SOUTHEAST ARIZONA

CITY           SKY/WX    TMP DP  RH WIND       PRES   REMARKS
TUCSON         CLEAR     61  33  35 SE6       29.98F
DAVIS-MONTHAN  CLEAR     59  34  38 SE6       29.96F
NOGALES        CLEAR     51  33  50 E7        30.01F
SIERRA VISTA   CLEAR     55  32  41 SW8       30.04F
DOUGLAS        CLEAR     48  25  40 NW5       30.03S
SAFFORD        CLEAR     57  30  35 N8        29.96S
$$

AZZ020-021-025-026-031-241000-
SOUTHWEST ARIZONA

CITY           SKY/WX    TMP DP  RH WIND       PRES   REMARKS
YUMA           CLEAR     66  47  50 SW5       29.88F
$$

CAZ031-033-041-043-047-048-061-241000-
SOUTHERN CALIFORNIA

CITY           SKY/WX    TMP DP  RH WIND       PRES   REMARKS
DOWNTOWN L.A.  CLOUDY    61  50  67 CALM      30.00F
L.A. AIRPORT   CLOUDY    59  52  77 NW6       30.00F
SAN DIEGO      MOCLDY    63  52  67 W8        30.02F
BURBANK        CLOUDY    59  50  72 CALM      30.00S
ONTARIO        MOCLDY    58  51  78 W8        29.98F
RIVERSIDE      CLOUDY    59  52  77 W3        29.98F
PALM SPRINGS   CLEAR     68  48  48 NW8       29.87S
EL CENTRO NAS  CLEAR     65  46  50 W8        29.87F
IMPERIAL       CLEAR     63  47  55 W9        29.85F
BLYTHE         CLEAR     66  51  58 S12       29.86F
NEEDLES        PTCLDY    74  43  32 SW7       29.84F
$$

NVZ020-UTZ003-241000-
SOUTHERN NEVADA-UTAH

CITY           SKY/WX    TMP DP  RH WIND       PRES   REMARKS
LAS VEGAS      MOCLDY    72  43  35 W8        29.82R
SALT LAKE CITY MOCLDY    50  44  80 S7        29.96S
$$

NMZ009-TXZ055-241000-
NEW MEXICO-WEST TEXAS

CITY           SKY/WX    TMP DP  RH WIND       PRES   REMARKS
ALBUQUERQUE    PTCLDY    53  35  50 NW9       30.01S
EL PASO        CLEAR     68  23  18 W13       29.95R
$$


........................KEY........................
SKY/WX - SKY CONDITION/WEATHER
TMP    - TEMPERATURE IN FAHRENHEIT
DP     - DEW POINT IN FAHRENHEIT
RH     - RELATIVE HUMIDITY IN PERCENT
WIND   - DIRECTION AND SPEED IN MILES PER HOUR (MPH)
VRB    - VARIABLE WIND DIRECTION
PRES   - MEAN SEA LEVEL PRESSURE IN INCHES OF MERCURY
         F - FALLING PRESSURE   R - RISING PRESSURE
         S - STEADY PRESSURE
VSB    - VISIBILITY IN MILES
HX     - HEAT INDEX IN FAHRENHEIT
WCI    - WIND CHILL INDEX IN FAHRENHEIT
TC     - TEMPERATURE IN CELSIUS WHICH IS ALSO KNOWN AS
         TEMPERATURE IN CENTIGRADE
AFB    - AIR FORCE BASE
         LUKE AFB IS LUKE AIR FORCE BASE
         DAVIS-MONTHAN IS DAVIS-MONTHAN AIR FORCE BASE
NAS    - NAVAL AIR STATION
         EL CENTRO NAS IS EL CENTRO NAVAL AIR STATION
N/A    - NOT AVAILABLE




USA.gov is the U.S. government's official web portal to all federal, state and local government web resources and services.